Showing default

LES 6, 3431

Orbit data source: Space-Track

LES 6, 3431 is a payload satellite owned by SAMSO (US) in GEO that was launched on Thu, 26 Sep 1968 UTC via a TITAN IIIC launch vehicle from the Air Force Eastern Test Range (AFETR). Payload-class satellites include a variety of spacecraft equipped with specific instruments for various scientific and technological missions. These include communications satellites like Starlink; space stations such as the ISS; scientific satellites like the Hubble; Earth observation satellites from companies like Planet Labs, Umbra, and HawkEye 360; GPS; miniature CubeSats for education and research; and military/defense satellites.

Loading next visibility...
Identifier
3431, 1968-081D
Orbit
GEO
Country
Flag of USUS
Related business
Manufacturer
MIT-LL
Mission
Non-operational spacecraft
Bus & Motor
LES, Unknown motor
Mass
169 kg wet, ~149 kg dry
Launch date (UTC)
1968-09-26 (58 years ago)
Launch vehicle
TITAN IIIC
Launch site
Air Force Eastern Test Range (AFETR)
Object type
Payload
Rocket body
Debris
Shape & HBR
CYL, 1.1 m
Radar Cross Section
Large (>1 m²)

Expand to show TLE details & history
Last TLE update: 6 hours ago

TLE from 6 hours ago
0 LES 6
1 03431U 68081D   26258.19383197 -.00000043  00000-0  00000-0 0  9996
2 03431   1.7068  44.5207 0007758 289.6793 334.5421  1.00349779121688
Epoch: 2026-09-15T04:39Z
TLE epoch observation values (Epoch: 2026-09-15T04:39:07.082Z)
Latitude
-1.68431°
Longitude
-115.24992°
Altitude
35,734.903 km
Speed
3.078 km/s
True Right ascension
20h 34m 46s
True Declination
-1° 40' 57"
Sunlit
Object was in daylight at epoch
Visualization orbit readout
Latitude
Unknown
Longitude
Unknown
Altitude
Unknown
Speed
Unknown
Apparent Right ascension
Unknown
Apparent Declination
Unknown
Sunlit
N/A
Visualization observer readout
Local Sidereal Time
03:24:06
Azimuth
Unknown
Elevation
Unknown
Doppler factor
Unknown
Orbital elements
Apogee altitude
35,798.509 km
Perigee altitude
35,733.119 km
Semi-major axis
42,143.951 km
Eccentricity
0.00078
Inclination
1.7068°
RAAN
44.5207°
Arg. of periapsis
289.6793°
True anomaly
334.50385°
Mean anomaly
334.5421°
Eccentric anomaly
334.52298°
Mean motion
0.25087 °/min
Orbital period
1,435.03 mins
BSTAR
0
Loading maneuver chart data...
Computing Atmospheric mass density...

Documentation

Showing up to 5 results
|